Cloud_Cover
100 92 97 100 36 17 13 13 1 0 0 5 4 0 0 0 0 4 5 5 5 5 5 73 100 100 100 100 100 100 100 100 100 23 1 76 7 1 0 0 39 42 0 0 0
100 98 72 100 46 32 1 0 0 0 0 3 0 0 4 5 5 5 5 5 36 10 100 100 100 100 100 100 100 100 100 100 29 16 100 68 19 59 19 28 0 0 0 0 0
100 100 99 100 33 40 6 11 0 0 0 0 0 5 5 99 100 100 5 11 82 98 68 100 100 100 100 100 100 100 98 27 4 47 94 91 2 64 8 2 0 0 0 0 0
100 96 96 100 33 33 26 21 0 0 1 2 0 1 100 100 100 4 3 43 38 100 100 100 100 100 100 100 100 84 5 7 29 9 19 71 100 11 0 0 0 0 0 0 0
100 100 99 74 31 34 19 15 0 3 4 0 0 4 59 100 94 25 5 5 13 100 100 100 100 100 100 100 100 100 100 62 3 100 3 2 100 73 4 0 0 0 0 0 0
100 100 100 34 28 22 11 0 0 5 0 0 0 19 79 100 100 26 5 4 76 100 100 100 100 100 100 100 100 94 94 28 2 95 12 87 90 98 27 95 3 3 2 0 0
100 100 98 11 14 21 5 3 4 0 0 0 0 3 44 100 91 5 3 2 83 100 100 100 100 100 100 100 100 19 100 98 18 10 99 56 86 100 96 93 100 100 100 29 0
100 100 31 0 0 4 5 5 0 0 0 0 0 0 98 100 74 11 46 0 4 5 28 100 100 100 100 100 86 100 100 100 95 100 84 76 82 48 100 100 100 100 100 100 100
100 100 28 0 0 4 5 5 3 0 0 0 0 5 56 94 100 11 19 3 11 44 1 0 3 92 100 77 73 95 100 100 100 88 81 81 100 6 100 92 100 100 100 60 100
100 100 88 0 0 3 5 5 1 0 0 0 0 5 99 99 100 97 55 6 11 33 27 6 94 92 60 55 84 100 100 100 11 65 100 100 100 100 100 99 64 100 100 100 100
100 100 33 0 0 0 2 0 0 0 0 0 0 0 36 100 100 100 100 48 53 53 100 100 100 100 86 57 94 100 100 29 5 38 100 25 5 9 12 95 100 100 100 100 100
100 100 0 0 0 3 8 4 3 0 0 0 0 0 0 90 100 100 100 83 100 99 33 100 100 100 85 85 87 23 31 88 100 94 41 24 4 4 5 100 100 100 100 100 98
100 97 0 0 2 33 1 0 1 0 0 0 0 0 0 64 100 100 100 100 100 49 63 57 100 75 100 100 49 4 55 15 76 4 2 1 34 2 3 36 21 91 100 92 4
100 44 0 0 9 0 0 0 4 0 0 0 0 0 0 0 22 96 0 9 96 2 2 64 100 100 100 20 38 10 73 5 0 90 99 0 0 0 1 4 74 100 51 96 98
100 9 0 78 1 2 0 0 0 0 3 0 0 0 0 0 5 6 3 15 56 98 26 0 0 5 30 4 0 5 34 91 96 89 88 0 0 0 0 0 0 0 0 0 0
98 0 2 0 0 4 5 0 0 1 3 0 0 0 0 0 0 6 0 1 0 0 1 1 0 0 0 1 0 14 7 66 98 97 78 47 72 22 0 0 0 0 0 0 0
94 0 48 0 1 30 1 1 0 4 2 0 0 0 0 0 0 0 5 4 3 3 2 0 4 21 87 100 71 5 10 98 88 82 79 75 40 2 0 0 0 0 0 0 0
53 31 1 0 0 10 3 0 2 5 68 2 0 0 3 88 79 50 13 6 8 26 9 13 5 5 5 25 55 48 64 22 6 2 100 11 7 0 0 0 0 0 0 0 0
6 4 0 0 1 5 8 5 4 46 100 75 2 6 55 66 100 83 62 38 69 99 45 91 98 99 37 0 0 0 0 0 0 5 100 89 5 0 0 0 0 0 0 0 0
0 3 0 0 4 5 5 5 0 4 22 99 96 88 86 100 96 100 92 78 31 0 5 17 37 54 4 0 0 0 0 0 0 1 0 60 41 3 2 0 0 0 0 0 0
1 1 0 3 2 5 5 3 0 0 0 8 48 96 93 83 100 100 100 42 13 2 2 0 0 0 1 4 2 4 0 0 0 0 5 2 4 5 0 0 0 0 0 0 0
2 0 0 0 18 57 1 0 0 0 0 0 3 7 4 39 100 100 84 85 26 0 0 0 0 0 0 0 27 5 3 0 0 0 0 0 0 0 0 0 0 0 0 0 0
1 0 0 0 0 0 0 0 0 0 0 0 0 1 0 2 0 4 3 1 0 0 0 0 0 0 0 0 0 0 3 0 0 0 0 0 0 5 6 0 0 0 0 0 0
0 0 0 0 0 0 0 0 0 0 0 0 0 0 0 0 0 0 0 0 0 0 0 0 0 0 0 0 0 0 0 0 0 0 0 0 0 0 0 0 0 0 0 0 0
0 0 0 0 0 0 0 0 0 0 0 0 0 0 0 0 0 0 0 0 0 0 0 0 0 0 0 0 0 0 0 0 0 0 0 0 0 0 0 0 0 0 0 0 0
2 5 5 4 0 0 0 0 0 0 2 2 0 0 0 0 0 0 0 0 0 0 0 0 0 0 0 0 0 0 0 0 0 0 0 0 0 0 0 0 0 0 0 0 0
62 4 3 2 4 0 0 0 0 0 0 0 1 0 0 0 0 0 0 0 0 0 0 0 0 0 0 0 0 0 0 0 0 0 0 0 0 0 0 0 0 0 0 0 0